When you browse on this site, cookies collect data to enhance your experience and personalize the content and advertising you see.
Visit our Privacy Policy to learn more. By continuing to use the site, you agree to this use of cookies and data.
  • Em Portugal
  • Lista de países
  • Para 7 dias
  • Temperatura da água
  • Mapa do tempo
  • Widgets de tempo
  • user-avatar
    Iniciar Sessão

    Previsão horária em Balho

    Hoje, 14 Outubro, Segunda-feira

    Tempo Temperatura Precipitação Vento Pressão Humidade
    00:00 +33°C° 0 mm 3 m/s 736 mmHg 36%
    01:00 +31°C° 0 mm 3 m/s 736 mmHg 38%
    02:00 +31°C° 0 mm 3 m/s 735 mmHg 41%
    03:00 +30°C° 0 mm 2 m/s 735 mmHg 43%
    04:00 +30°C° 0 mm 2 m/s 735 mmHg 45%
    05:00 +30°C° 0 mm 2 m/s 736 mmHg 48%
    06:00 +29°C° 0 mm 2 m/s 736 mmHg 50%
    07:00 +30°C° 0 mm 2 m/s 736 mmHg 46%
    08:00 +31°C° 0 mm 2 m/s 737 mmHg 42%
    09:00 +32°C° 0 mm 2 m/s 737 mmHg 38%
    10:00 +35°C° 0 mm 2 m/s 737 mmHg 33%
    11:00 +36°C° 0 mm 2 m/s 737 mmHg 28%
    12:00 +37°C° 0 mm 2 m/s 737 mmHg 23%
    13:00 +38°C° 0 mm 3 m/s 736 mmHg 22%
    14:00 +40°C° 0 mm 4 m/s 735 mmHg 20%
    15:00 +40°C° 0 mm 5 m/s 735 mmHg 18%
    16:00 +40°C° 0 mm 5 m/s 735 mmHg 19%
    17:00 +39°C° 0 mm 5 m/s 735 mmHg 20%
    18:00 +37°C° 0 mm 5 m/s 735 mmHg 22%
    19:00 +36°C° 0 mm 4 m/s 735 mmHg 23%
    20:00 +36°C° 0 mm 3 m/s 736 mmHg 24%
    21:00 +35°C° 0 mm 3 m/s 736 mmHg 26%
    22:00 +34°C° 0 mm 2 m/s 736 mmHg 28%
    23:00 +34°C° 0 mm 2 m/s 736 mmHg 30%

    Amanhã, 15 Outubro, Terça-feira

    Tempo Temperatura Precipitação Vento Pressão Humidade
    00:00 +32°C° 0 mm 2 m/s 736 mmHg 32%
    01:00 +32°C° 0 mm 1 m/s 735 mmHg 34%
    02:00 +31°C° 0 mm 1 m/s 735 mmHg 36%
    03:00 +31°C° 0 mm 1 m/s 735 mmHg 37%
    04:00 +31°C° 0 mm 1 m/s 735 mmHg 38%
    05:00 +31°C° 0 mm 1 m/s 735 mmHg 38%
    06:00 +31°C° 0 mm 1 m/s 736 mmHg 38%
    07:00 +32°C° 0 mm 2 m/s 736 mmHg 35%
    08:00 +34°C° 0 mm 2 m/s 737 mmHg 31%
    09:00 +35°C° 0 mm 3 m/s 738 mmHg 28%
    10:00 +36°C° 0 mm 3 m/s 737 mmHg 27%
    11:00 +37°C° 0 mm 2 m/s 737 mmHg 27%
    12:00 +37°C° 0 mm 2 m/s 736 mmHg 26%
    13:00 +38°C° 0 mm 2 m/s 736 mmHg 25%
    14:00 +39°C° 0 mm 2 m/s 735 mmHg 24%
    15:00 +39°C° 0 mm 2 m/s 734 mmHg 23%
    16:00 +38°C° 0 mm 4 m/s 734 mmHg 25%
    17:00 +39°C° 0 mm 5 m/s 734 mmHg 27%
    18:00 +38°C° 0 mm 6 m/s 734 mmHg 29%
    19:00 +36°C° 0 mm 5 m/s 734 mmHg 29%
    20:00 +36°C° 0 mm 5 m/s 735 mmHg 29%
    21:00 +35°C° 0 mm 4 m/s 735 mmHg 29%
    22:00 +34°C° 0 mm 4 m/s 735 mmHg 33%
    23:00 +34°C° 0 mm 4 m/s 735 mmHg 37%

    Depois de amanhã, 16 Outubro, Quarta-feira

    Tempo Temperatura Precipitação Vento Pressão Humidade
    00:00 +33°C° 0 mm 4 m/s 735 mmHg 41%
    01:00 +31°C° 0 mm 3 m/s 735 mmHg 43%
    02:00 +31°C° 0 mm 2 m/s 735 mmHg 44%
    03:00 +30°C° 0 mm 2 m/s 734 mmHg 46%
    04:00 +30°C° 0 mm 2 m/s 735 mmHg 49%
    05:00 +30°C° 0 mm 2 m/s 735 mmHg 51%
    06:00 +29°C° 0 mm 2 m/s 736 mmHg 54%
    07:00 +30°C° 0 mm 3 m/s 736 mmHg 50%
    08:00 +31°C° 0 mm 3 m/s 737 mmHg 47%
    09:00 +33°C° 0 mm 3 m/s 737 mmHg 44%
    10:00 +34°C° 0 mm 3 m/s 737 mmHg 40%
    11:00 +36°C° 0 mm 2 m/s 736 mmHg 36%
    12:00 +36°C° 0 mm 1 m/s 736 mmHg 32%
    13:00 +37°C° 0 mm 2 m/s 735 mmHg 30%
    14:00 +38°C° 0 mm 2 m/s 734 mmHg 28%
    15:00 +38°C° 0 mm 3 m/s 734 mmHg 26%
    16:00 +38°C° 0 mm 4 m/s 734 mmHg 30%
    17:00 +37°C° 0 mm 5 m/s 734 mmHg 34%
    18:00 +36°C° 0 mm 6 m/s 734 mmHg 38%
    19:00 +35°C° 0 mm 6 m/s 735 mmHg 40%
    20:00 +35°C° 0 mm 5 m/s 735 mmHg 42%
    21:00 +34°C° 0 mm 5 m/s 736 mmHg 45%
    22:00 +33°C° 0 mm 5 m/s 736 mmHg 46%
    23:00 +33°C° 0 mm 5 m/s 736 mmHg 48%

    17 Outubro, Quinta-feira

    Tempo Temperatura Precipitação Vento Pressão Humidade
    00:00 +32°C° 0 mm 5 m/s 736 mmHg 49%
    01:00 +32°C° 0 mm 4 m/s 736 mmHg 51%
    02:00 +32°C° 0 mm 4 m/s 735 mmHg 53%
    03:00 +30°C° 0 mm 4 m/s 735 mmHg 55%
    04:00 +30°C° 0 mm 4 m/s 736 mmHg 57%
    05:00 +30°C° 0 mm 4 m/s 736 mmHg 59%
    06:00 +29°C° 0 mm 3 m/s 736 mmHg 61%
    07:00 +30°C° 0 mm 4 m/s 737 mmHg 54%
    08:00 +32°C° 0 mm 4 m/s 737 mmHg 46%
    09:00 +34°C° 0 mm 4 m/s 738 mmHg 39%
    10:00 +35°C° 0 mm 5 m/s 737 mmHg 33%
    11:00 +36°C° 0 mm 5 m/s 737 mmHg 27%
    12:00 +39°C° 0 mm 5 m/s 736 mmHg 22%
    13:00 +39°C° 0 mm 5 m/s 736 mmHg 21%
    14:00 +40°C° 0 mm 5 m/s 735 mmHg 21%
    15:00 +40°C° 0 mm 6 m/s 734 mmHg 21%
    16:00 +39°C° 0 mm 6 m/s 735 mmHg 24%
    17:00 +38°C° 0 mm 6 m/s 735 mmHg 28%
    18:00 +36°C° 0 mm 6 m/s 735 mmHg 32%
    19:00 +35°C° 0 mm 5 m/s 735 mmHg 36%
    20:00 +34°C° 0 mm 5 m/s 736 mmHg 39%
    21:00 +33°C° 0 mm 4 m/s 736 mmHg 43%
    22:00 +33°C° 0 mm 4 m/s 736 mmHg 47%
    23:00 +32°C° 0 mm 4 m/s 736 mmHg 50%

    18 Outubro, Sexta-feira

    Tempo Temperatura Precipitação Vento Pressão Humidade
    00:00 +30°C° 0 mm 4 m/s 736 mmHg 54%
    01:00 +30°C° 0 mm 3 m/s 735 mmHg 56%
    02:00 +30°C° 0 mm 3 m/s 735 mmHg 58%
    03:00 +29°C° 0 mm 3 m/s 735 mmHg 61%
    04:00 +29°C° 0 mm 3 m/s 735 mmHg 63%
    05:00 +29°C° 0 mm 2 m/s 736 mmHg 65%
    06:00 +29°C° 0 mm 2 m/s 736 mmHg 67%
    07:00 +30°C° 0 mm 2 m/s 737 mmHg 61%
    08:00 +31°C° 0 mm 2 m/s 737 mmHg 55%
    09:00 +32°C° 0 mm 2 m/s 738 mmHg 50%
    10:00 +34°C° 0 mm 2 m/s 737 mmHg 45%
    11:00 +34°C° 0 mm 1 m/s 736 mmHg 41%
    12:00 +35°C° 0 mm 1 m/s 736 mmHg 37%
    13:00 +36°C° 0 mm 3 m/s 735 mmHg 36%
    14:00 +37°C° 0 mm 5 m/s 735 mmHg 35%
    15:00 +38°C° 0 mm 7 m/s 734 mmHg 34%
    16:00 +36°C° 0 mm 7 m/s 734 mmHg 38%
    17:00 +35°C° 0 mm 6 m/s 734 mmHg 42%
    18:00 +34°C° 0 mm 6 m/s 734 mmHg 46%
    19:00 +33°C° 0 mm 5 m/s 735 mmHg 48%
    20:00 +33°C° 0 mm 5 m/s 735 mmHg 49%
    21:00 +33°C° 0 mm 5 m/s 735 mmHg 51%
    22:00 +32°C° 0 mm 4 m/s 735 mmHg 52%
    23:00 +32°C° 0 mm 4 m/s 735 mmHg 54%

    19 Outubro, Sábado

    Tempo Temperatura Precipitação Vento Pressão Humidade
    00:00 +31°C° 0 mm 3 m/s 735 mmHg 55%
    01:00 +30°C° 0 mm 3 m/s 735 mmHg 57%
    02:00 +30°C° 0 mm 2 m/s 735 mmHg 59%
    03:00 +29°C° 0 mm 2 m/s 735 mmHg 61%
    04:00 +29°C° 0 mm 1 m/s 735 mmHg 63%
    05:00 +29°C° 0 mm 1 m/s 735 mmHg 66%
    06:00 +28°C° 0 mm 1 m/s 736 mmHg 68%
    07:00 +30°C° 0 mm 1 m/s 736 mmHg 60%
    08:00 +31°C° 0 mm 2 m/s 737 mmHg 52%
    09:00 +32°C° 0 mm 2 m/s 737 mmHg 45%
    10:00 +35°C° 0 mm 3 m/s 737 mmHg 38%
    11:00 +36°C° 0 mm 4 m/s 737 mmHg 32%
    12:00 +39°C° 0 mm 5 m/s 736 mmHg 26%
    13:00 +39°C° 0 mm 6 m/s 735 mmHg 24%
    14:00 +40°C° 0 mm 6 m/s 735 mmHg 23%
    15:00 +40°C° 0 mm 7 m/s 734 mmHg 21%
    16:00 +39°C° 0 mm 6 m/s 734 mmHg 22%
    17:00 +38°C° 0 mm 6 m/s 734 mmHg 22%
    18:00 +38°C° 0 mm 6 m/s 734 mmHg 23%
    19:00 +36°C° 0 mm 5 m/s 735 mmHg 26%
    20:00 +35°C° 0 mm 5 m/s 735 mmHg 30%
    21:00 +34°C° 0 mm 4 m/s 736 mmHg 33%
    22:00 +33°C° 0 mm 4 m/s 736 mmHg 36%
    23:00 +31°C° 0 mm 3 m/s 736 mmHg 40%
    Mostrar mais